Regional Weather Roundup
Issued by NWS Midland/Odessa, TX

Home | Current Version | Previous Version | Text Only | Print | Product List | Glossary On
Versions: 1 2 3 4 5 6 7 8 9 10 11 12 13 14 15 16 17 18 19 20 21 22 23 24 25 26 27 28 29 30 31 32 33 34 35 36 37 38 39 40 41 42 43 44 45 46 47 48 49 50
000
ASUS44 KMAF 250710
RWRMAF
MIDLAND AREA WEATHER ROUNDUP
NATIONAL WEATHER SERVICE MIDLAND TX
200 AM CDT SUN JUN 25 2017

...IN SOUTHWEST TEXAS AND SOUTHEAST NEW MEXICO...

CITY           SKY/WX    TMP DP  RH WIND       PRES   REMARKS
ALPINE         CLEAR     71  63  76 E3        30.31S
ANDREWS          N/A     70  65  85 E22       30.25R
ARTESIA        CLOUDY    77  61  57 SE13      30.21R
BIG SPRING     PTCLDY    72  64  77 E15       30.26R
CARLSBAD       PTCLDY    79  62  56 SE14      30.17S
DRYDEN           N/A     76  65  68 E13G22    30.16R
FORT STOCKTON  CLEAR     77  66  68 SE8       30.19R
GUAD PASS      CLOUDY    71  58  63 NE20      30.31F
HOBBS          MOCLDY    70  64  83 E21       30.28R
MARFA          CLEAR     68  59  73 CALM      30.30R
MIDLAND AIRPK  MOCLDY    75  65  71 E14G22    30.25R
MIDLAND INTL   MOCLDY    75  64  68 E20       30.23R
ODESSA         MOCLDY    75  65  70 E22G28    30.24R
PECOS          CLEAR     77  63  61 E9        30.16S
PRESIDIO       FAIR      82  65  55 NE12      30.14R
SEMINOLE       CLOUDY    69  64  82 E17G23    30.28R
SNYDER         CLOUDY    71  65  83 E10       30.26R
WINK           PTCLDY    79  63  57 MISG      30.16R
$$
...OTHER STATIONS IN TEXAS...

CITY           SKY/WX    TMP DP  RH WIND       PRES   REMARKS
ABILENE        CLOUDY    71  67  87 E6        30.22S
AMARILLO       CLOUDY    65  62  90 SE12      30.30S
AUSTIN         MOCLDY    77  71  82 NE6       30.13S
BROWNSVILLE    MOCLDY    81  79  94 CALM      30.02F
CORPUS CHRISTI CLOUDY    81  77  88 N6        30.05S THUNDER
DALLAS FTW     PTCLDY    73  64  73 NE5       30.17S
DEL RIO        PTCLDY    76  68  76 E7        30.11F
EL PASO        CLOUDY    73  62  68 S9        30.20S
HOUSTON INT    CLOUDY    78  74  87 CALM      30.10S
LUBBOCK        CLOUDY    68  62  81 SE14      30.29R
SAN ANGELO     CLOUDY    73  65  75 E8        30.20R
SAN ANTONIO    PTCLDY    74  67  78 NE3       30.13F
WACO           CLOUDY    73  71  93 N6        30.15S
WICHITA FALLS  NOT AVBL
$$
...OTHER LOCATIONS IN NEW MEXICO...

CITY           SKY/WX    TMP DP  RH WIND       PRES   REMARKS
ALAMOGORDO     CLOUDY    70  57  64 SW3       30.20R
ALBUQUERQUE    PTCLDY    72  53  51 E21       30.25S
CANNON AFB     CLOUDY    64  64 100 E18       30.32S
CLOVIS         CLOUDY    64  60  87 E16       30.33R
HOLLOMAN AFB   CLOUDY    75  58  56 S8        30.20R
ROSWELL        CLOUDY    75  58  55 SE8       30.21R
RUIDOSO        CLOUDY    61  50  67 SE9       30.43R
SANTA FE       CLEAR     66  56  70 SE15      30.33F
TRUTH OR CONSE CLOUDY    67  58  72 S6        30.22R
TUCUMCARI      CLOUDY    65  62  90 E13       30.25S
$$



USA.gov is the U.S. government's official web portal to all federal, state and local government web resources and services.